Simultaneous Nadir Overpasses (SNOs) Predictions

Prediction of SNOs between GOES-17 and LANDSAT-8 Satellite Orbit:

Table of predicted SNOs for the next 14.0 days since TLE Epoch: 12/3/2022
Index Date Time (GOES-17) GOES-17 Lat,Lon LANDSAT-8 Lat,Lon Distance(km) Time Diff (sec)
1 12/03/2022 19:10:51 0.01,-137.32 -0.61,-134.26 347.87 80
2 12/04/2022 07:32:16 -0.01,-137.32 -0.44,-139.46 243.38 80
3 12/06/2022 07:17:24 -0.01,-137.30 0.16,-136.50 91.31 80
4 12/06/2022 19:38:38 0.01,-137.30 0.96,-141.65 495.03 80
5 12/08/2022 07:05:12 -0.00,-137.28 0.77,-133.54 425.22 80
6 12/08/2022 19:26:28 -0.00,-137.28 0.29,-138.70 161.30 80
7 12/10/2022 19:16:56 -0.01,-137.25 -0.34,-135.74 171.93 80
8 12/11/2022 07:38:19 0.01,-137.24 -0.77,-140.93 419.69 80
9 12/13/2022 07:23:27 0.00,-137.21 -0.14,-137.98 86.77 80
10 12/15/2022 07:13:54 -0.00,-137.17 0.44,-135.01 245.96 80
11 12/15/2022 19:32:30 0.00,-137.17 0.61,-140.17 341.09 80
